Time,TemperatureF,DewpointF,PressureIn,WindDirection,WindDirectionDegrees,WindSpeedMPH,WindSpeedGustMPH,Humidity,HourlyPrecipIn,Conditions,Clouds,dailyrainin,SoftwareType,DateUTC
2013-03-17 00:02:00,17.0,9.0,30.06,NW,306,3.0,10.0,69,0.00,,,0.09,,2013-03-17 05:02:00,
2013-03-17 00:12:00,17.0,9.0,30.06,NW,306,3.0,10.0,69,0.00,,,0.09,,2013-03-17 05:12:00,
2013-03-17 00:22:00,17.0,9.0,30.07,NW,313,3.0,7.0,69,0.00,,,0.09,,2013-03-17 05:22:00,
2013-03-17 00:32:00,16.0,8.0,30.08,NNW,329,3.0,7.0,71,0.00,,,0.09,,2013-03-17 05:32:00,
2013-03-17 00:42:00,16.0,8.0,30.08,NNW,329,3.0,7.0,71,0.00,,,0.09,,2013-03-17 05:42:00,
2013-03-17 00:52:00,15.0,8.0,30.09,NW,318,3.0,5.0,72,0.00,,,0.09,,2013-03-17 05:52:00,
2013-03-17 01:02:00,15.0,8.0,30.10,NW,326,3.0,6.0,72,0.00,,,0.09,,2013-03-17 06:02:00,
2013-03-17 01:12:00,15.0,8.0,30.10,NW,326,3.0,6.0,72,0.00,,,0.09,,2013-03-17 06:12:00,
2013-03-17 01:22:00,14.0,7.0,30.10,NNW,336,2.0,4.0,72,0.00,,,0.09,,2013-03-17 06:22:00,
2013-03-17 01:32:00,14.0,7.0,30.10,NNW,336,1.0,4.0,72,0.00,,,0.09,,2013-03-17 06:32:00,
2013-03-17 01:42:00,14.0,7.0,30.10,NNW,336,1.0,4.0,72,0.00,,,0.09,,2013-03-17 06:42:00,
2013-03-17 01:52:00,13.0,6.0,30.11,NW,315,2.0,3.0,73,0.00,,,0.09,,2013-03-17 06:52:00,
2013-03-17 02:02:00,13.0,6.0,30.12,NW,315,2.0,3.0,74,0.00,,,0.09,,2013-03-17 07:02:00,
2013-03-17 02:12:00,13.0,6.0,30.12,NW,315,2.0,3.0,74,0.00,,,0.09,,2013-03-17 07:12:00,
2013-03-17 02:22:00,12.0,5.0,30.13,NW,315,1.0,3.0,74,0.00,,,0.09,,2013-03-17 07:22:00,
2013-03-17 02:32:00,12.0,5.0,30.14,NW,315,1.0,3.0,74,0.00,,,0.09,,2013-03-17 07:32:00,
2013-03-17 02:42:00,12.0,5.0,30.14,NW,315,1.0,3.0,74,0.00,,,0.09,,2013-03-17 07:42:00,
2013-03-17 02:52:00,12.0,6.0,30.14,NW,315,2.0,4.0,75,0.00,,,0.09,,2013-03-17 07:52:00,
2013-03-17 03:02:00,11.0,5.0,30.14,NNW,345,3.0,5.0,75,0.00,,,0.09,,2013-03-17 08:02:00,
2013-03-17 03:13:00,11.0,5.0,30.15,NNW,345,2.0,4.0,75,0.00,,,0.09,,2013-03-17 08:13:00,
2013-03-17 03:22:00,11.0,5.0,30.15,NNW,345,2.0,4.0,75,0.00,,,0.09,,2013-03-17 08:22:00,
2013-03-17 03:32:00,10.0,4.0,30.15,NNW,345,2.0,3.0,76,0.00,,,0.09,,2013-03-17 08:32:00,
2013-03-17 03:42:00,10.0,4.0,30.15,NNW,345,2.0,3.0,76,0.00,,,0.09,,2013-03-17 08:42:00,
2013-03-17 03:52:00,10.0,4.0,30.15,NNW,345,2.0,4.0,77,0.00,,,0.09,,2013-03-17 08:52:00,
2013-03-17 04:02:00,10.0,5.0,30.15,North,360,2.0,4.0,78,0.00,,,0.09,,2013-03-17 09:02:00,
2013-03-17 04:12:00,10.0,5.0,30.15,North,360,2.0,4.0,78,0.00,,,0.09,,2013-03-17 09:12:00,
2013-03-17 04:22:00,10.0,4.0,30.15,NNW,348,2.0,7.0,77,0.00,,,0.09,,2013-03-17 09:22:00,
2013-03-17 04:32:00,10.0,4.0,30.15,NNE,17,3.0,6.0,76,0.00,,,0.09,,2013-03-17 09:32:00,
2013-03-17 04:43:00,10.0,4.0,30.15,NNE,17,3.0,6.0,76,0.00,,,0.09,,2013-03-17 09:43:00,
2013-03-17 04:53:00,10.0,4.0,30.15,NNE,27,3.0,7.0,75,0.00,,,0.09,,2013-03-17 09:53:00,
2013-03-17 05:03:00,9.0,3.0,30.15,NNE,24,4.0,8.0,75,0.00,,,0.09,,2013-03-17 10:03:00,
2013-03-17 05:13:00,9.0,3.0,30.15,NNE,24,4.0,8.0,75,0.00,,,0.09,,2013-03-17 10:13:00,
2013-03-17 05:23:00,9.0,3.0,30.14,North,355,3.0,6.0,75,0.00,,,0.09,,2013-03-17 10:23:00,
2013-03-17 05:33:00,9.0,3.0,30.14,NNE,22,2.0,6.0,76,0.00,,,0.09,,2013-03-17 10:33:00,
2013-03-17 05:42:00,9.0,3.0,30.14,NNE,22,2.0,6.0,76,0.00,,,0.09,,2013-03-17 10:42:00,
2013-03-17 05:52:00,8.0,2.0,30.15,North,5,4.0,7.0,77,0.00,,,0.09,,2013-03-17 10:52:00,
2013-03-17 06:02:00,8.0,2.0,30.15,NNE,26,6.0,8.0,77,0.00,,,0.09,,2013-03-17 11:02:00,
2013-03-17 06:12:00,8.0,2.0,30.15,NNE,26,6.0,8.0,77,0.00,,,0.09,,2013-03-17 11:12:00,
2013-03-17 06:22:00,7.0,2.0,30.15,NE,38,4.0,7.0,78,0.00,,,0.09,,2013-03-17 11:22:00,
2013-03-17 06:32:00,7.0,2.0,30.16,NE,35,4.0,6.0,79,0.00,,,0.09,,2013-03-17 11:32:00,
2013-03-17 06:42:00,7.0,2.0,30.16,NE,35,4.0,6.0,79,0.00,,,0.09,,2013-03-17 11:42:00,
2013-03-17 06:52:00,7.0,2.0,30.15,NNE,22,3.0,6.0,79,0.00,,,0.09,,2013-03-17 11:52:00,
2013-03-17 07:02:00,7.0,2.0,30.15,NNE,28,3.0,5.0,79,0.00,,,0.09,,2013-03-17 12:02:00,
2013-03-17 07:12:00,7.0,2.0,30.15,NNE,28,3.0,5.0,79,0.00,,,0.09,,2013-03-17 12:12:00,
2013-03-17 07:22:00,7.0,2.0,30.15,NNE,31,3.0,6.0,80,0.00,,,0.09,,2013-03-17 12:22:00,
2013-03-17 07:32:00,6.0,1.0,30.16,NE,37,3.0,6.0,81,0.00,,,0.09,,2013-03-17 12:32:00,
2013-03-17 07:42:00,6.0,1.0,30.16,NE,37,3.0,6.0,81,0.00,,,0.09,,2013-03-17 12:42:00,
2013-03-17 07:52:00,6.0,1.0,30.16,NE,41,4.0,6.0,81,0.00,,,0.09,,2013-03-17 12:52:00,
2013-03-17 08:02:00,7.0,2.0,30.15,NE,38,3.0,6.0,81,0.00,,,0.09,,2013-03-17 13:02:00,
2013-03-17 08:12:00,7.0,2.0,30.15,NE,38,3.0,6.0,81,0.00,,,0.09,,2013-03-17 13:12:00,
2013-03-17 08:22:00,7.0,2.0,30.16,NE,51,2.0,5.0,80,0.00,,,0.09,,2013-03-17 13:22:00,
2013-03-17 08:32:00,8.0,3.0,30.16,ENE,78,4.0,9.0,80,0.00,,,0.09,,2013-03-17 13:32:00,
2013-03-17 08:42:00,8.0,3.0,30.16,ENE,78,4.0,9.0,80,0.00,,,0.09,,2013-03-17 13:42:00,
2013-03-17 08:52:00,8.0,3.0,30.17,ENE,63,3.0,7.0,79,0.00,,,0.09,,2013-03-17 13:52:00,
2013-03-17 09:02:00,9.0,4.0,30.18,ENE,73,4.0,7.0,78,0.00,,,0.09,,2013-03-17 14:02:00,
2013-03-17 09:12:00,9.0,4.0,30.18,ENE,73,4.0,7.0,78,0.00,,,0.09,,2013-03-17 14:12:00,
2013-03-17 09:22:00,11.0,5.0,30.19,ESE,117,5.0,7.0,76,0.00,,,0.09,,2013-03-17 14:22:00,
2013-03-17 09:32:00,12.0,5.0,30.19,East,84,4.0,5.0,74,0.00,,,0.09,,2013-03-17 14:32:00,
2013-03-17 09:42:00,12.0,5.0,30.19,East,84,4.0,5.0,74,0.00,,,0.09,,2013-03-17 14:42:00,
2013-03-17 09:53:00,13.0,6.0,30.19,ENE,73,4.0,8.0,72,0.00,,,0.09,,2013-03-17 14:53:00,
2013-03-17 10:02:00,14.0,6.0,30.20,ESE,111,3.0,8.0,71,0.00,,,0.09,,2013-03-17 15:02:00,
2013-03-17 10:12:00,14.0,6.0,30.20,ESE,111,3.0,8.0,71,0.00,,,0.09,,2013-03-17 15:12:00,
2013-03-17 10:23:00,14.0,6.0,30.20,SSE,164,3.0,7.0,70,0.00,,,0.09,,2013-03-17 15:23:00,
2013-03-17 10:33:00,14.0,6.0,30.20,East,95,5.0,9.0,69,0.00,,,0.09,,2013-03-17 15:33:00,
2013-03-17 10:42:00,14.0,6.0,30.20,East,95,5.0,9.0,69,0.00,,,0.09,,2013-03-17 15:42:00,
2013-03-17 10:53:00,15.0,7.0,30.20,East,92,4.0,8.0,69,0.00,,,0.09,,2013-03-17 15:53:00,
2013-03-17 11:03:00,16.0,8.0,30.19,ESE,115,5.0,9.0,69,0.00,,,0.09,,2013-03-17 16:03:00,
2013-03-17 11:12:00,16.0,8.0,30.19,ESE,115,5.0,9.0,69,0.00,,,0.09,,2013-03-17 16:12:00,
2013-03-17 11:22:00,16.0,8.0,30.19,ENE,77,4.0,12.0,69,0.00,,,0.09,,2013-03-17 16:22:00,
2013-03-17 11:33:00,17.0,8.0,30.19,SE,135,6.0,10.0,68,0.00,,,0.09,,2013-03-17 16:33:00,
2013-03-17 11:42:00,17.0,8.0,30.19,SE,135,6.0,10.0,68,0.00,,,0.09,,2013-03-17 16:42:00,
2013-03-17 11:52:00,18.0,9.0,30.19,East,94,6.0,9.0,66,0.00,,,0.09,,2013-03-17 16:52:00,
2013-03-17 12:02:00,18.0,8.0,30.19,ESE,120,5.0,12.0,65,0.00,,,0.09,,2013-03-17 17:02:00,
2013-03-17 12:12:00,18.0,8.0,30.19,ESE,120,5.0,12.0,65,0.00,,,0.09,,2013-03-17 17:12:00,
2013-03-17 12:22:00,19.0,10.0,30.18,SE,140,3.0,10.0,66,0.00,,,0.09,,2013-03-17 17:22:00,
2013-03-17 12:33:00,19.0,9.0,30.18,SE,126,5.0,10.0,64,0.00,,,0.09,,2013-03-17 17:33:00,
2013-03-17 12:42:00,19.0,9.0,30.18,SE,126,5.0,10.0,64,0.00,,,0.09,,2013-03-17 17:42:00,
2013-03-17 12:53:00,19.0,9.0,30.17,SE,144,4.0,10.0,65,0.00,,,0.09,,2013-03-17 17:53:00,
2013-03-17 13:02:00,20.0,10.0,30.16,SE,143,3.0,11.0,65,0.00,,,0.09,,2013-03-17 18:02:00,
2013-03-17 13:12:00,20.0,10.0,30.16,SE,143,3.0,11.0,65,0.00,,,0.09,,2013-03-17 18:12:00,
2013-03-17 13:22:00,20.0,10.0,30.16,East,97,4.0,8.0,64,0.00,,,0.05,,2013-03-17 18:22:00,
2013-03-17 13:32:00,21.0,11.0,30.15,East,97,4.0,8.0,64,0.00,,,0.05,,2013-03-17 18:32:00,
2013-03-17 13:42:00,21.0,11.0,30.15,East,97,4.0,8.0,64,0.00,,,0.05,,2013-03-17 18:42:00,
2013-03-17 13:52:00,21.0,11.0,30.14,East,84,4.0,7.0,64,0.00,,,0.05,,2013-03-17 18:52:00,
2013-03-17 14:02:00,21.0,10.0,30.13,ESE,102,4.0,8.0,63,0.00,,,0.05,,2013-03-17 19:02:00,
2013-03-17 14:12:00,21.0,10.0,30.13,ESE,102,4.0,8.0,63,0.00,,,0.05,,2013-03-17 19:12:00,
2013-03-17 14:22:00,22.0,11.0,30.13,East,96,4.0,9.0,62,0.00,,,0.02,,2013-03-17 19:22:00,
2013-03-17 14:33:00,22.0,10.0,30.11,East,99,4.0,7.0,60,0.00,,,0.02,,2013-03-17 19:33:00,
2013-03-17 14:42:00,22.0,10.0,30.11,East,99,4.0,7.0,60,0.00,,,0.02,,2013-03-17 19:42:00,
2013-03-17 14:53:00,22.0,11.0,30.10,SE,135,4.0,9.0,61,0.00,,,0.02,,2013-03-17 19:53:00,
2013-03-17 15:02:00,23.0,12.0,30.10,East,79,3.0,8.0,63,0.00,,,0.02,,2013-03-17 20:02:00,
2013-03-17 15:12:00,23.0,12.0,30.10,East,79,3.0,8.0,63,0.00,,,0.02,,2013-03-17 20:12:00,
2013-03-17 15:22:00,23.0,12.0,30.10,East,93,5.0,8.0,61,0.00,,,0.02,,2013-03-17 20:22:00,
2013-03-17 15:32:00,23.0,12.0,30.09,East,98,4.0,9.0,62,0.00,,,0.02,,2013-03-17 20:32:00,
2013-03-17 15:42:00,23.0,12.0,30.09,East,98,4.0,9.0,62,0.00,,,0.02,,2013-03-17 20:42:00,
2013-03-17 15:52:00,24.0,13.0,30.09,East,100,5.0,10.0,61,0.00,,,0.02,,2013-03-17 20:52:00,
2013-03-17 16:02:00,24.0,13.0,30.07,East,98,5.0,10.0,62,0.00,,,0.02,,2013-03-17 21:02:00,
2013-03-17 16:12:00,24.0,13.0,30.07,East,98,5.0,10.0,62,0.00,,,0.02,,2013-03-17 21:12:00,
2013-03-17 16:22:00,24.0,13.0,30.07,SSE,150,7.0,14.0,62,0.00,,,0.01,,2013-03-17 21:22:00,
2013-03-17 16:33:00,25.0,14.0,30.07,ESE,105,6.0,9.0,62,0.00,,,0.01,,2013-03-17 21:33:00,
2013-03-17 16:43:00,25.0,14.0,30.07,ESE,105,6.0,9.0,62,0.00,,,0.01,,2013-03-17 21:43:00,
2013-03-17 16:52:00,25.0,15.0,30.06,East,101,6.0,10.0,64,0.00,,,0.01,,2013-03-17 21:52:00,
2013-03-17 17:03:00,25.0,15.0,30.06,ESE,108,4.0,9.0,65,0.00,,,0.01,,2013-03-17 22:03:00,
2013-03-17 17:12:00,25.0,15.0,30.05,East,88,6.0,11.0,65,0.00,,,0.01,,2013-03-17 22:12:00,
2013-03-17 17:23:00,25.0,15.0,30.05,East,88,6.0,11.0,65,0.00,,,0.01,,2013-03-17 22:23:00,
2013-03-17 17:33:00,25.0,15.0,30.04,East,96,4.0,8.0,66,0.00,,,0.01,,2013-03-17 22:33:00,
2013-03-17 17:42:00,25.0,15.0,30.04,East,96,4.0,8.0,66,0.00,,,0.01,,2013-03-17 22:42:00,
2013-03-17 17:53:00,25.0,15.0,30.03,ESE,102,5.0,9.0,66,0.00,,,0.01,,2013-03-17 22:53:00,
2013-03-17 18:02:00,24.0,14.0,30.03,ESE,120,5.0,9.0,66,0.00,,,0.01,,2013-03-17 23:02:00,
2013-03-17 18:12:00,24.0,14.0,30.03,ESE,120,5.0,9.0,66,0.00,,,0.01,,2013-03-17 23:12:00,
2013-03-17 18:22:00,24.0,15.0,30.03,East,86,3.0,9.0,67,0.00,,,0.00,,2013-03-17 23:22:00,
2013-03-17 18:32:00,24.0,15.0,30.03,ESE,112,2.0,9.0,68,0.00,,,0.00,,2013-03-17 23:32:00,
2013-03-17 18:42:00,24.0,15.0,30.03,ESE,112,2.0,9.0,68,0.00,,,0.00,,2013-03-17 23:42:00,
2013-03-17 18:53:00,24.0,15.0,30.02,East,101,3.0,7.0,68,0.00,,,0.00,,2013-03-17 23:53:00,
2013-03-17 19:03:00,23.0,14.0,30.01,ESE,123,4.0,12.0,69,0.00,,,0.00,,2013-03-18 00:03:00,
2013-03-17 19:12:00,23.0,14.0,30.01,ESE,123,4.0,12.0,69,0.00,,,0.00,,2013-03-18 00:12:00,
2013-03-17 19:22:00,22.0,14.0,30.01,ESE,107,5.0,10.0,70,0.00,,,0.00,,2013-03-18 00:22:00,
2013-03-17 19:33:00,22.0,14.0,30.01,ESE,117,4.0,8.0,70,0.00,,,0.00,,2013-03-18 00:33:00,
2013-03-17 19:42:00,22.0,14.0,30.01,ESE,117,4.0,8.0,70,0.00,,,0.00,,2013-03-18 00:42:00,
2013-03-17 19:52:00,22.0,14.0,30.02,SE,143,3.0,8.0,71,0.00,,,0.00,,2013-03-18 00:52:00,
2013-03-17 20:02:00,22.0,14.0,30.01,ESE,105,4.0,12.0,71,0.00,,,0.00,,2013-03-18 01:02:00,
2013-03-17 20:12:00,22.0,14.0,30.01,ESE,105,4.0,12.0,71,0.00,,,0.00,,2013-03-18 01:12:00,
2013-03-17 20:22:00,21.0,13.0,30.02,SE,136,3.0,7.0,72,0.00,,,0.00,,2013-03-18 01:22:00,
2013-03-17 20:32:00,21.0,13.0,30.01,SE,130,3.0,6.0,72,0.00,,,0.00,,2013-03-18 01:32:00,
2013-03-17 20:42:00,21.0,13.0,30.01,SE,130,3.0,6.0,72,0.00,,,0.00,,2013-03-18 01:42:00,
2013-03-17 20:52:00,20.0,13.0,30.01,ESE,116,2.0,9.0,73,0.00,,,0.00,,2013-03-18 01:52:00,
2013-03-17 21:02:00,20.0,13.0,30.01,SE,142,3.0,6.0,74,0.00,,,0.00,,2013-03-18 02:02:00,
2013-03-17 21:12:00,20.0,13.0,30.01,SE,142,3.0,6.0,74,0.00,,,0.00,,2013-03-18 02:12:00,
2013-03-17 21:22:00,20.0,13.0,30.00,SE,131,3.0,7.0,75,0.00,,,0.00,,2013-03-18 02:22:00,
2013-03-17 21:32:00,20.0,14.0,29.99,ESE,107,4.0,9.0,76,0.00,,,0.00,,2013-03-18 02:32:00,
2013-03-17 21:42:00,20.0,14.0,29.99,ESE,107,4.0,9.0,76,0.00,,,0.00,,2013-03-18 02:42:00,
2013-03-17 21:52:00,20.0,14.0,29.99,SE,136,2.0,9.0,77,0.00,,,0.00,,2013-03-18 02:52:00,
2013-03-17 22:02:00,19.0,13.0,29.98,ESE,118,3.0,8.0,78,0.00,,,0.00,,2013-03-18 03:02:00,
2013-03-17 22:11:00,19.0,13.0,29.98,ESE,118,3.0,8.0,78,0.00,,,0.00,,2013-03-18 03:11:00,
2013-03-17 22:22:00,19.0,14.0,29.98,ESE,121,4.0,10.0,79,0.00,,,0.00,,2013-03-18 03:22:00,
2013-03-17 22:33:00,19.0,14.0,29.98,East,101,5.0,9.0,79,0.00,,,0.00,,2013-03-18 03:33:00,
2013-03-17 22:42:00,19.0,14.0,29.98,East,101,5.0,9.0,79,0.00,,,0.00,,2013-03-18 03:42:00,
2013-03-17 22:53:00,19.0,14.0,29.97,ESE,104,4.0,13.0,80,0.00,,,0.00,,2013-03-18 03:53:00,
2013-03-17 23:03:00,19.0,14.0,29.97,East,99,4.0,8.0,80,0.00,,,0.00,,2013-03-18 04:03:00,
2013-03-17 23:13:00,19.0,14.0,29.97,East,99,4.0,8.0,80,0.00,,,0.00,,2013-03-18 04:13:00,
2013-03-17 23:23:00,19.0,14.0,29.97,SE,135,4.0,8.0,81,0.00,,,0.00,,2013-03-18 04:23:00,
2013-03-17 23:33:00,19.0,14.0,29.96,SSE,150,4.0,8.0,81,0.00,,,0.00,,2013-03-18 04:33:00,
2013-03-17 23:42:00,19.0,14.0,29.96,SSE,150,4.0,8.0,81,0.00,,,0.00,,2013-03-18 04:42:00,
2013-03-17 23:53:00,18.0,13.0,29.95,ESE,103,2.0,8.0,81,0.00,,,0.00,,2013-03-18 04:53:00,